Showing default

GALILEO 21 (2C7), 43057

Orbit data source: Space-Track

GALILEO 21 (2C7), 43057 is a payload satellite owned by GNSS Agency (ESA) that was launched on Tue, 12 Dec 2017 UTC via an ARIANE 5ES launch vehicle from the French Guiana (FRGUI). Payload-class satellites include a variety of spacecraft equipped with specific instruments for various scientific and technological missions. These include communications satellites like Starlink; space stations such as the ISS; scientific satellites like the Hubble; Earth observation satellites from companies like Planet Labs, Umbra, and HawkEye 360; GPS; miniature CubeSats for education and research; and military/defense satellites.

Loading next visibility...
Identifier
43057, 2017-079C
Orbit
Active
Country
Flag of ESAESA
Related business
Manufacturer
OHB
Mission
Operational Civil Navigation
Bus & Motor
GALILEOSAT, AOCS
Mass
715 kg wet, 700 kg dry
Launch date (UTC)
2017-12-12 (8 years ago)
Launch vehicle
ARIANE 5ES
Launch site
French Guiana (FRGUI)
Object type
Payload
Rocket body
Debris
Shape & HBR
Box + 2 Pan, 7.3 m
Radar Cross Section
9.223 m², Large (>1 m²)

Expand to show TLE details & history
Last TLE update: 23 hours ago

TLE from 23 hours ago
0 GALILEO 21 (2C7)
1 43057U 17079C   25302.41417988  .00000006  00000-0  00000-0 0  9993
2 43057  55.1458 227.8555 0003246 314.2987  45.6942  1.70473795 49053
Epoch: 2025-10-29T09:56Z
TLE epoch observation values (Epoch: 2025-10-29T09:56:25.141Z)
Latitude
-0.00006°
Longitude
40.75131°
Altitude
23,215.756 km
Speed
3.671 km/s
True Right ascension
15h 11m 22s
True Declination
0° 00' 00"
Sunlit
Object was in daylight at epoch
Visualization orbit readout
Latitude
Unknown
Longitude
Unknown
Altitude
Unknown
Speed
Unknown
Apparent Right ascension
Unknown
Apparent Declination
Unknown
Sunlit
N/A
Visualization observer readout
Local Sidereal Time
04:53:53
Azimuth
Unknown
Elevation
Unknown
Doppler factor
Unknown
Orbital elements
Apogee altitude
23,231.818 km
Perigee altitude
23,212.602 km
Semi-major axis
29,600.347 km
Eccentricity
0.00032
Inclination
55.1458°
RAAN
227.8555°
Arg. of periapsis
314.2987°
True anomaly
45.72083°
Mean anomaly
45.6942°
Eccentric anomaly
45.70751°
Mean motion
0.42618 °/min
Orbital period
844.7 mins
BSTAR
0
Loading maneuver chart data...
Computing Atmospheric mass density...
Loading historical data...
Loading historical data...
Loading historical data...
Loading historical data...
Loading historical data...
Loading historical data...
Loading historical data...
Other satellites on launch #79 in the year 2017 (2017-12-12 UTC)

Documentation

Showing up to 5 results
|